Jessheim, Norway

6:03 AM CEST on April 29, 2017 (GMT +0200)
Jessheim

Weather History for 01384 - April, 2014

Change the Weather History Date:

Sunday, April 27, 2014

  Actual Average Record
Temperature  
Mean Temperature 52 °F -  
Max Temperature 68 °F 56 °F - ()
Min Temperature 35 °F 38 °F - ()
Degree Days  
Heating Degree Days 14    
Growing Degree Days 2 (Base 50)    
Moisture  
Dew Point 34 °F    
Average Humidity 48    
Maximum Humidity 87    
Minimum Humidity 15    
Precipitation  
Precipitation 0.00 in 0.08 in - ()
Sea Level Pressure  
Sea Level Pressure 29.96 in    
Wind  
Wind Speed 5 mph ()    
Max Wind Speed 9 mph    
Max Gust Speed -    
Visibility 12.3 miles    
Events      
T = Trace of Precipitation, MM = Missing Value Source: Averaged Metar Reports

Daily Weather History Graph

Daily Weather History Graph

Search for Another Location

Airport or City:

Trip Planner

Search our weather history database for the weather conditions in past years. The results will help you decide how hot, cold, wet, or windy it might be!

Date:

Astronomy

Apr. 27, 2014 Rise Set
Actual Time 5:24 AM CEST 9:04 PM CEST
Civil Twilight 4:32 AM CEST 9:56 PM CEST
Nautical Twilight 3:16 AM CEST 11:13 PM CEST
Astronomical Twilight 1:45 AM CEST 12:40 AM CEST
Moon 4:51 AM CEST (4/27) 6:52 PM CEST (4/27)
Length of Visible Light 17h 23m
Length of Day
15h 40m
Waning Crescent, 4% of the Moon is Illuminated
Apr 27
Waning Crescent
Apr 29
New
May 7
First Quarter
May 14
Full
May 21
Last Quarter

Hourly Weather History & Observations

Time (CEST) Temp. Windchill Dew Point Humidity Pressure Visibility Wind Dir Wind Speed Gust Speed Precip Events Conditions
12:20 AM 42.8 °F 39.3 °F 33.8 °F 70% 30.01 in - North 5.8 mph - N/A   Clear
12:50 AM 42.8 °F 41.1 °F 33.8 °F 70% 30.01 in - North 3.5 mph - N/A   Clear
1:00 AM 45 °F - 35 °F 58%  in 25 mi NNE 4.5 mph - -  
1:20 AM 42.8 °F 41.1 °F 35.6 °F 76% 30.01 in - NNE 3.5 mph - N/A   Clear
1:50 AM 42.8 °F 41.1 °F 35.6 °F 76% 30.01 in - North 3.5 mph - N/A   Clear
2:00 AM 43 °F - 35 °F 63%  in 47 mi North 6.7 mph - -   Partly Cloudy
2:20 AM 41.0 °F 37.1 °F 33.8 °F 76% 30.01 in - North 5.8 mph - N/A   Clear
2:50 AM 39.2 °F 35.9 °F 33.8 °F 81% 30.01 in - North 4.6 mph - N/A   Clear
3:00 AM 41 °F - 34 °F 69%  in 19 mi NNE 6.7 mph - -  
3:20 AM 39.2 °F 35.9 °F 32.0 °F 75% 29.98 in - North 4.6 mph - N/A   Clear
3:50 AM 39.2 °F 34.2 °F 33.8 °F 81% 29.98 in - NNE 6.9 mph - N/A   Clear
4:00 AM 40 °F - 34 °F 71%  in 25 mi NNE 6.7 mph - -  
4:20 AM 37.4 °F 34.9 °F 32.0 °F 81% 29.98 in - NNE 3.5 mph - N/A   Clear
4:50 AM 37.4 °F 32.8 °F 32.0 °F 81% 29.98 in - NNE 5.8 mph - N/A   Clear
5:00 AM 38 °F - 34 °F 79%  in 47 mi NNE 6.7 mph - -   Partly Cloudy
5:20 AM 37.4 °F 32.8 °F 32.0 °F 81% 29.98 in - NNE 5.8 mph - N/A   Clear
5:50 AM 35.6 °F 31.7 °F 32.0 °F 87% 29.98 in - North 4.6 mph - N/A   Clear
6:00 AM 37 °F - 33 °F 82%  in 6 mi NNE 6.7 mph - -  
6:20 AM 37.4 °F 34.9 °F 33.8 °F 87% 29.98 in - North 3.5 mph - N/A   Clear
6:50 AM 39.2 °F 37.0 °F 33.8 °F 81% 30.01 in - North 3.5 mph - N/A   Clear
7:00 AM 40 °F - 36 °F 79%  in 12 mi NNE 4.5 mph - -  
7:20 AM 42.8 °F 41.1 °F 35.6 °F 76% 30.01 in - North 3.5 mph - N/A   Clear
7:50 AM 44.6 °F 43.1 °F 35.6 °F 71% 30.01 in - North 3.5 mph - N/A   Clear
8:00 AM 46 °F - 36 °F 60%  in 47 mi NNE 4.5 mph - -   Partly Cloudy
8:50 AM 50.0 °F - 37.4 °F 62% 29.98 in - North 4.6 mph - N/A   Clear
9:00 AM 51 °F - 38 °F 49%  in 31 mi NE 4.5 mph - -  
9:20 AM 53.6 °F - 35.6 °F 51% 29.98 in - NE 8.1 mph - N/A   Clear
9:50 AM 55.4 °F - 35.6 °F 47% 29.98 in - NE 6.9 mph - N/A   Clear
10:00 AM 55 °F - 36 °F 36%  in 25 mi NE 8.9 mph - -  
10:20 AM 57.2 °F - 33.8 °F 41% 29.98 in - NE 6.9 mph - N/A   Clear
10:50 AM 59.0 °F - 33.8 °F 39% 29.98 in - NE 5.8 mph - N/A   Clear
11:00 AM 58 °F - 34 °F 28%  in 47 mi NNE 8.9 mph - -   Partly Cloudy
11:20 AM 60.8 °F - 33.8 °F 36% 29.98 in - ENE 6.9 mph - N/A   Clear
11:50 AM 60.8 °F - 32.0 °F 34% 29.98 in - NE 5.8 mph - N/A   Clear
12:00 PM 61 °F - 31 °F 21%  in 37 mi NNE 6.7 mph - -  
12:20 PM 62.6 °F - 32.0 °F 32% 29.98 in - Variable 3.5 mph - N/A   Clear
12:50 PM 64.4 °F - 33.8 °F 32% 29.98 in - East 5.8 mph - N/A   Clear
1:00 PM 64 °F - 33 °F 20%  in 37 mi NNW 6.7 mph - -  
1:20 PM 64.4 °F - 32.0 °F 30% 29.98 in - Variable 3.5 mph - N/A   Clear
1:50 PM 64.4 °F - 32.0 °F 30% 29.95 in - Variable 4.6 mph - N/A   Clear
2:00 PM 65 °F - 33 °F 20%  in 47 mi North 4.5 mph - -   Partly Cloudy
2:20 PM 64.4 °F - 30.2 °F 28% 29.95 in - Variable 8.1 mph - N/A   Clear
2:50 PM 66.2 °F - 32.0 °F 28% 29.95 in - Variable 3.5 mph - N/A   Clear
3:00 PM 66 °F - 32 °F 17%  in 37 mi West 4.5 mph - -  
3:20 PM 66.2 °F - 32.0 °F 28% 29.95 in - NE 6.9 mph - N/A   Clear
3:50 PM 66.2 °F - 32.0 °F 28% 29.95 in - NNE 5.8 mph - N/A   Clear
4:00 PM 67 °F - 31 °F 15%  in 25 mi ENE 6.7 mph - -  
4:20 PM 66.2 °F - 30.2 °F 26% 29.95 in - South 4.6 mph - N/A   Clear
4:50 PM 66.2 °F - 30.2 °F 26% 29.92 in - Variable 1.2 mph - N/A   Clear
5:00 PM 67 °F - 31 °F 16%  in 47 mi NNE 6.7 mph - -   Partly Cloudy
5:20 PM 66.2 °F - 32.0 °F 28% 29.92 in - East 3.5 mph - N/A   Clear
5:50 PM 68.0 °F - 33.8 °F 28% 29.92 in - Variable 3.5 mph - N/A   Clear
6:00 PM 68 °F - 34 °F 18%  in 37 mi ENE 4.5 mph - -  
6:20 PM 68.0 °F - 32.0 °F 26% 29.92 in - Calm Calm - N/A   Clear
6:50 PM 68.0 °F - 32.0 °F 26% 29.92 in - SW 3.5 mph - N/A   Clear
7:00 PM 67 °F - 33 °F 18%  in 31 mi NNW 2.2 mph - -  
7:20 PM 66.2 °F - 32.0 °F 28% 29.92 in - Variable 2.3 mph - N/A   Clear
7:50 PM 64.4 °F - 33.8 °F 32% 29.92 in - Calm Calm - N/A   Clear
8:00 PM 65 °F - 33 °F 20%  in 47 mi SW 2.2 mph - -   Partly Cloudy
8:20 PM 64.4 °F - 33.8 °F 32% 29.92 in - WSW 2.3 mph - N/A   Clear
8:50 PM 62.6 °F - 35.6 °F 37% 29.92 in - West 2.3 mph - N/A   Clear
9:00 PM 61 °F - 34 °F 25%  in 25 mi SSW 2.2 mph - -  
9:20 PM 60.8 °F - 37.4 °F 42% 29.92 in - Variable 1.2 mph - N/A   Clear
9:50 PM 57.2 °F - 39.2 °F 51% 29.92 in - NNW 3.5 mph - N/A   Clear
10:00 PM 56 °F - 35 °F 34%  in 25 mi NNW 2.2 mph - -  
10:20 PM 53.6 °F - 37.4 °F 54% 29.92 in - North 3.5 mph - N/A   Clear
10:50 PM 50.0 °F - 37.4 °F 62% 29.92 in - North 4.6 mph - N/A   Clear
11:00 PM 52 °F - 37 °F 45%  in 47 mi NNE 4.5 mph - -   Partly Cloudy
11:20 PM 48.2 °F - 35.6 °F 62% 29.92 in - North 3.5 mph - N/A   Clear
11:50 PM 46.4 °F 45.2 °F 35.6 °F 66% 29.92 in - North 3.5 mph - N/A   Clear